Simultaneous Nadir Overpasses (SNOs) Predictions

Prediction of SNOs between GOES-15 and LANDSAT-8 Satellite Orbit:

Table of predicted SNOs for the next 14.0 days since TLE Epoch: 6/1/2024
Index Date Time (GOES-15) GOES-15 Lat,Lon LANDSAT-8 Lat,Lon Distance(km) Time Diff (sec)
1 06/01/2024 18:07:29 0.17, 61.55 0.12, 61.27 31.11 80
2 06/03/2024 17:52:39 0.17, 61.51 0.76, 64.23 308.80 80
3 06/04/2024 06:16:34 -0.15, 61.49 0.38, 59.08 274.15 80
4 06/06/2024 06:01:44 -0.16, 61.46 -0.27, 62.03 64.85 80
5 06/08/2024 05:49:34 -0.17, 61.44 -0.93, 64.98 403.44 80
6 06/08/2024 18:13:38 0.14, 61.45 -0.20, 59.80 187.78 80
7 06/10/2024 17:58:47 0.16, 61.43 0.42, 62.76 150.81 80
8 06/11/2024 06:22:42 -0.13, 61.40 0.66, 57.60 431.83 80
9 06/12/2024 17:46:37 0.17, 61.41 1.11, 65.71 489.51 80
10 06/13/2024 06:10:32 -0.14, 61.38 0.03, 60.56 93.13 80
